User: anonymous   Login
Location: Newark
(45.9167°N, 5.5000°E)
Time: 21:00:05
(UTC+00:00)
Language:

N. Korean satellite - Orbit

View from above orbital plane
View from above orbital plane
View from above satellite
View from above satellite

Ground track
Ground track

The orbit data is extracted from the following two-line orbital elements,

1 39026U 12072A   20057.43030285 +.00000737 +00000-0 +28903-4 0  9994
2 39026 097.2202 057.5840 0035809 283.2613 076.4634 15.28356729400139
Epoch (UTC): 26 February 2020 10:19:38
Eccentricity: 0.0035809
inclination: 97.2202°
perigee height: 456 km
apogee height: 505 km
right ascension of ascending node: 57.5840°
argument of perigee: 283.2613°
revolutions per day: 15.28356729
mean anomaly at epoch: 76.4634°
orbit number at epoch: 40013

The dashed part of the orbit path shows where the satellite is in the earth's shadow,  

DLR